User: anonymous   Login
Location: Barrio Las Umbrías
(40.4173°N, 4.8685°W)
Time: 04:19:21
(UTC+00:00)
Language:

NIUSAT - Orbit

View from above orbital plane
View from above orbital plane
View from above satellite
View from above satellite

Ground track
Ground track

The orbit data is extracted from the following two-line orbital elements,

1 42766U 17036B   23153.63118023  .00024617  00000-0  64479-3 0  9993
2 42766  97.1571 185.2751 0011994 147.5660 212.6325 15.38617534330379
Epoch (UTC): 02 June 2023 15:08:53
Eccentricity: 0.0011994
inclination: 97.1571°
perigee height: 442 km
apogee height: 458 km
right ascension of ascending node: 185.2751°
argument of perigee: 147.5660°
revolutions per day: 15.38617534
mean anomaly at epoch: 212.6325°
orbit number at epoch: 33037

The dashed part of the orbit path shows where the satellite is in the earth's shadow,  

DLR